Location: Baia Mare
(47.6567°N, 23.5850°E)
Time: 03:20:51

ISS - Pass Details

Date: 03 March 2018
Orbit: 403 x 406 km, 51.6° (Epoch: 19 March)

Event Time Altitude Azimuth Distance (km) Brightness Sun altitude
Exits shadow 06:14:20 11° 249° (WSW) 1,393 -1.7 -9.0°
Maximum altitude 06:17:27 82° 338° (NNW) 414 -3.8 -8.5°
Drops below altitude 10° 06:20:44 10° 66° (ENE) 1,466 0.2 -7.9°
Sets 06:22:49 0° 67° (ENE) 2,327 1.4 -7.6°
